Location: Quaker Farms
(41.4276°N, 73.1557°W)
Time: 00:46:18
(UTC+00:00)

Altair - Pass Details

Date: 20 June 2021
Orbit: 1501 x 1682 km, 47.2° (Epoch: 23 July)

Event Time Altitude Azimuth Distance (km) Brightness Sun altitude
Rises 21:18:48 0° 284° (WNW) 4,749 11.1 32.8°
Reaches altitude 10° 21:21:53 10° 287° (WNW) 3,788 11.0 32.2°
Maximum altitude 21:31:31 65° 9° (N) 1,763 8.3 30.4°
Drops below altitude 10° 21:41:30 10° 91° (E) 3,917 9.2 28.6°
Sets 21:44:45 0° 94° (E) 4,918 9.6 28.0°
